This is the latest recevied weather packets stored in our database for station/object AC8JV. If no packets are shown the sender has not sent any weather packets the latest 10 day(s).
| Time | Temp. | Humidity | Pressure | Rain* | Wind** | Luminosity | Snow |
|---|---|---|---|---|---|---|---|
| 1788545421 | 21.67° C | 94% | 1015.7 hPa | 0 mm | - | - | - |
| 1788544808 | 21.67° C | 94% | 1015.2 hPa | 0 mm | - | - | - |
| 1788544204 | 21.11° C | 95% | 1015.3 hPa | 0 mm | - | - | - |
| 1788543608 | 21.11° C | 94% | 1015.9 hPa | 0 mm | - | - | - |
| 1788543005 | 21.11° C | 95% | 1015.8 hPa | 0.25 mm | - | - | - |
| 1788542404 | 20.56° C | 94% | 1017.1 hPa | 0.51 mm | - | - | - |
| 1788541802 | 20.56° C | 94% | 1016 hPa | 0.51 mm | - | - | - |
| 1788541203 | 20.56° C | 94% | 1014.6 hPa | 0.51 mm | - | - | - |
| 1788540606 | 20.56° C | 94% | 1013.2 hPa | 0.51 mm | - | - | - |
| 1788540010 | 20.56° C | 94% | 1013.7 hPa | 0.76 mm | - | - | - |
| 1788539408 | 20.56° C | 94% | 1014.7 hPa | 0.51 mm | - | - | - |
| 1788538822 | 20.56° C | 95% | 1016.4 hPa | 0.25 mm | - | - | - |
| 1788538203 | 20.56° C | 95% | 1017.3 hPa | 1.02 mm | - | - | - |
| 1788537606 | 20.56° C | 95% | 1017.2 hPa | 1.02 mm | - | - | - |
| 1788537001 | 20.56° C | 95% | 1016 hPa | 1.02 mm | - | - | - |
| 1788536402 | 20.56° C | 95% | 1016.1 hPa | 1.02 mm | - | - | - |
| 1788535801 | 20.56° C | 95% | 1016.2 hPa | 3.81 mm | - | - | - |
| 1788535222 | 20.56° C | 95% | 1016.7 hPa | 5.08 mm | - | - | - |
| 1788534606 | 20.56° C | 95% | 1016.7 hPa | 4.57 mm | - | - | - |
| 1788534020 | 20.56° C | 94% | 1016.5 hPa | 5.08 mm | - | - | - |
| 1788533408 | 20.56° C | 94% | 1017.4 hPa | 5.08 mm | - | - | - |
| 1788532806 | 20.56° C | 94% | 1017.7 hPa | 4.83 mm | - | - | - |
| 1788532206 | 20.56° C | 94% | 1018.6 hPa | 2.03 mm | - | - | - |
| 1788531601 | 20.56° C | 94% | 1017.9 hPa | 7.62 mm | - | - | - |
| 1788531013 | 20.56° C | 94% | 1017.6 hPa | 8.89 mm | - | - | - |
* Rain latest hour (hover to see other rain measurements)
** Current wind speed in m/s (hover to see current wind gust speed)